Temperature
19 19 19 19 19 19 19 19 19 19 18 19 19 18 18 18 18 18 18 18 18 18 18 18 18 18 18 18 18 18 18 18 18 17 18 18 18 17 17 17 17 17 17
19 19 19 19 19 19 19 19 18 18 18 18 18 18 18 18 18 18 18 18 18 18 18 18 18 18 18 18 18 18 18 18 18 17 17 17 17 17 17 17 18 17 17
19 19 19 19 19 19 19 19 18 18 19 18 18 18 18 18 18 18 18 18 18 18 18 18 18 18 18 18 18 18 18 18 17 17 17 17 17 17 17 18 18 17 17
20 19 19 19 19 19 19 19 18 18 19 18 18 18 18 18 18 18 18 18 18 18 18 18 18 18 18 18 18 17 17 17 17 17 17 17 17 17 17 18 18 17 17
20 19 19 19 19 19 19 19 19 19 18 18 18 18 18 18 18 18 18 18 18 18 18 18 18 18 18 18 17 17 17 17 17 18 17 18 18 18 17 17 17 17 17
20 20 19 19 19 19 19 19 19 18 18 18 18 18 18 18 18 18 18 18 18 18 18 18 18 18 18 18 17 17 17 17 17 18 18 18 18 18 18 17 17 17 17
20 20 20 19 19 19 19 19 19 18 18 18 18 18 18 18 18 18 18 18 18 18 18 18 18 18 18 18 17 17 17 18 18 18 18 18 18 18 18 17 17 17 17
20 20 20 19 19 19 19 19 19 19 19 18 18 18 18 18 18 18 18 18 18 18 18 18 18 18 18 18 17 17 18 18 18 18 18 18 18 18 18 17 17 17 17
20 20 20 19 19 19 19 19 19 19 19 19 18 18 18 18 18 18 18 18 18 18 18 18 18 18 18 18 18 18 18 18 18 18 18 18 18 18 18 17 17 17 17
20 20 20 20 19 19 19 19 19 19 19 19 19 18 18 18 18 18 18 18 18 18 18 18 18 18 18 18 18 18 18 18 18 18 18 18 18 18 18 18 17 17 17
20 20 20 19 19 19 19 19 19 19 18 18 18 18 18 18 18 18 18 18 18 18 18 18 18 18 18 18 18 18 18 18 18 18 18 18 18 18 18 18 17 17 17
20 20 20 19 19 19 19 19 19 18 18 18 18 18 18 18 18 18 18 18 18 18 18 18 18 18 18 18 18 18 18 18 18 18 18 18 18 18 18 18 18 17 17
20 20 20 20 19 19 19 19 19 19 18 18 18 18 18 18 18 18 18 18 18 18 18 18 18 18 18 18 18 18 18 18 18 18 18 18 18 18 18 18 18 17 17
20 20 20 20 19 19 19 19 19 19 19 19 18 18 18 18 18 18 18 18 18 18 18 18 18 18 18 18 18 18 18 18 18 18 18 18 18 18 18 18 18 17 17
20 20 20 20 19 19 19 19 19 19 19 19 18 18 18 18 18 18 18 18 18 18 18 18 18 18 18 18 18 18 18 18 18 18 18 18 18 18 18 17 17 17 17
21 20 20 20 20 19 19 19 19 19 19 19 19 18 18 18 18 18 18 18 18 18 18 18 18 18 18 18 18 18 18 18 18 18 18 18 18 18 17 17 17 17 17
21 20 20 20 20 20 19 19 19 19 19 19 19 19 19 19 18 18 18 18 18 18 18 18 18 18 18 18 18 18 18 18 18 18 18 18 18 17 17 17 17 17 17
21 21 20 20 20 20 20 19 19 19 19 19 19 19 19 19 19 18 18 18 18 18 18 18 18 18 18 18 18 18 18 18 18 18 18 17 17 17 17 17 17 17 17
21 21 20 20 20 20 20 19 19 19 19 19 19 19 19 19 19 19 19 18 18 18 18 18 18 18 18 18 18 18 18 18 18 17 17 17 17 17 17 17 17 17 16
22 21 21 20 20 20 20 19 19 19 19 19 19 19 19 19 19 18 18 18 18 18 18 18 18 18 18 18 18 18 18 18 18 17 17 17 17 17 17 17 17 16 16
22 21 21 21 20 20 20 20 19 19 19 19 19 19 19 19 19 18 18 18 18 18 18 18 18 18 18 18 18 17 17 17 17 17 17 17 17 17 17 16 16 16 16
22 22 21 21 20 20 20 20 20 19 19 19 19 19 19 19 19 19 18 18 18 18 18 18 18 18 18 18 18 17 17 17 17 17 17 17 17 16 16 16 16 16 16
23 22 22 21 21 20 20 20 19 19 19 19 19 19 19 19 19 19 19 19 18 18 18 18 18 18 18 18 18 17 17 17 16 16 16 16 16 16 16 16 16 16 16
23 23 22 21 21 21 20 20 20 20 19 19 19 19 19 19 19 19 19 18 18 18 18 18 18 18 18 17 17 17 17 17 16 16 16 16 16 16 15 15 15 15 15
23 23 22 22 21 21 20 20 20 20 19 19 19 19 19 19 18 18 18 18 18 18 18 18 18 17 17 17 17 17 17 17 17 16 15 15 15 15 15 15 15 15 15
24 23 22 22 22 21 21 20 20 20 20 19 19 19 19 19 18 18 18 18 18 18 18 18 18 17 17 17 17 17 17 17 17 16 16 15 15 15 15 15 15 15 15
Wind_Speed
1 2 7 9 10 11 12 13 13 13 14 15 16 16 17 17 18 19 19 20 20 20 20 20 20 21 21 21 22 22 22 21 21 21 20 20 19 19 19 19 18 16 18
4 5 8 9 11 12 13 13 14 14 14 15 15 16 16 17 18 19 19 19 19 19 19 19 20 20 20 21 21 21 21 21 20 20 20 18 18 18 18 18 17 15 18
6 7 9 11 12 12 13 13 14 14 15 15 16 16 16 17 18 18 19 18 18 19 19 19 19 19 19 20 20 19 20 20 19 19 18 15 16 17 17 18 18 18 17
8 8 10 12 12 12 13 13 14 15 15 16 16 16 16 17 18 18 18 18 18 18 18 18 18 18 18 18 18 18 18 18 18 17 14 13 14 17 18 18 17 17 16
8 9 11 12 12 12 13 13 13 14 15 15 16 16 17 17 17 17 17 17 18 18 18 17 17 18 17 17 16 16 16 16 16 15 13 13 14 17 17 17 16 15 15
7 9 11 12 12 12 12 12 13 13 14 15 15 16 16 17 16 16 16 16 17 17 16 16 17 16 16 15 15 14 14 15 15 14 14 14 13 16 16 16 15 15 14
7 8 11 13 12 12 12 12 12 13 14 14 15 15 15 16 16 15 15 16 16 15 15 15 15 15 14 14 13 12 13 14 14 13 13 13 13 16 16 15 15 14 14
10 9 11 12 12 12 11 11 12 12 13 14 14 14 14 15 15 14 14 14 14 14 14 13 13 12 12 11 10 10 12 14 13 13 12 12 15 15 15 14 14 14 13
10 8 8 9 11 11 11 11 11 11 12 13 13 13 13 14 14 13 13 13 13 12 12 11 11 10 9 8 8 9 12 12 13 12 13 12 14 15 15 14 14 13 13
7 7 6 7 8 8 8 9 10 10 10 11 11 11 11 12 12 12 11 11 11 11 10 9 9 8 6 6 6 7 11 12 12 12 11 13 15 15 14 14 13 13 12
8 6 6 6 7 8 7 8 8 8 8 8 9 10 9 7 8 8 9 10 10 9 8 7 7 5 4 4 4 5 8 9 10 10 11 14 16 15 14 14 13 13 12
8 7 6 6 6 7 7 7 5 5 5 6 6 7 6 6 6 7 8 8 8 8 7 6 4 3 2 1 2 3 5 8 9 10 11 16 16 15 14 14 13 13 12
9 8 6 6 6 6 4 6 4 3 4 4 5 6 5 5 4 4 4 4 5 5 4 3 3 2 2 2 2 3 6 8 9 10 12 17 17 16 15 14 13 13 12
8 8 7 6 5 5 6 5 5 4 4 4 5 7 6 3 3 3 3 4 4 4 3 3 3 3 3 4 4 3 5 7 9 10 13 17 17 16 16 15 14 13 13
8 7 7 6 6 5 5 3 4 4 4 5 5 7 7 4 3 3 2 3 4 5 4 3 3 3 3 3 4 4 4 8 10 11 12 17 17 16 16 15 14 14 14
8 8 7 6 6 6 4 3 3 4 5 5 5 6 7 6 4 3 3 2 3 4 5 4 4 3 2 2 2 3 4 7 9 10 11 14 16 16 15 15 15 14 14
9 8 7 7 5 5 5 4 3 4 5 4 4 6 7 7 5 4 3 2 3 4 4 3 2 1 1 1 1 1 3 5 7 9 10 11 12 14 14 14 14 14 14
10 9 7 7 6 5 4 3 3 3 4 4 5 5 7 7 6 4 2 2 2 2 2 2 1 1 1 1 1 1 1 2 4 6 7 8 9 9 11 12 13 13 12
11 10 7 7 7 5 4 3 3 3 3 4 4 4 5 5 5 4 2 2 2 1 1 1 1 2 1 1 1 1 1 2 3 4 5 6 7 7 8 9 10 10 10
10 10 8 7 7 5 4 2 2 2 1 2 3 4 5 4 5 4 2 2 2 1 1 1 1 1 2 2 2 2 1 1 2 3 4 4 6 6 6 6 6 7 9
9 9 8 7 6 5 3 3 2 1 1 1 2 4 5 4 4 3 2 2 2 2 2 2 1 1 1 2 2 2 2 2 2 1 2 2 3 4 5 5 5 4 5
10 9 8 8 7 6 4 3 3 2 2 2 1 2 4 4 4 3 3 2 2 2 1 1 2 2 1 2 3 2 1 2 2 1 1 2 2 2 3 4 4 4 3
11 11 10 8 7 7 6 3 2 2 1 1 1 1 2 3 3 3 3 2 2 2 2 1 2 3 2 1 2 3 3 2 0 2 2 2 2 2 2 3 3 3 3
13 11 9 9 8 7 6 5 5 4 3 3 2 2 2 2 3 3 2 2 2 2 2 2 2 2 3 2 1 1 2 4 3 1 1 2 2 2 2 2 3 3 4
13 11 9 9 7 7 7 7 6 4 3 2 2 2 1 1 1 2 2 2 2 2 2 2 2 2 2 2 2 1 1 1 2 3 2 0 2 2 2 2 2 3 4
11 11 10 9 8 7 7 7 7 6 5 4 3 3 2 1 0 1 2 2 2 2 2 2 2 2 2 1 2 2 2 2 2 3 3 2 1 1 2 2 2 3 4
Wind_Direction
116 112 86 80 79 77 75 73 75 79 80 85 87 88 89 92 96 99 102 103 106 109 110 110 111 112 113 115 116 117 116 117 117 117 118 117 117 119 118 117 115 114 115
151 119 97 90 88 84 80 77 77 84 86 89 91 93 94 96 98 101 103 105 107 108 110 111 110 112 113 114 116 117 118 119 118 118 117 117 119 120 119 118 117 120 119
126 115 106 100 93 88 85 82 81 86 90 93 95 95 97 100 101 102 102 103 106 108 110 111 112 113 114 115 116 118 120 120 120 118 115 113 117 119 119 120 120 120 119
125 119 113 105 98 93 90 87 84 88 92 94 95 97 98 102 102 103 104 104 106 108 110 111 113 115 115 115 116 119 121 122 122 119 114 115 117 120 120 121 121 120 121
118 121 118 110 105 99 95 91 90 89 93 96 97 98 100 104 104 103 105 106 107 109 110 111 112 114 116 116 117 118 121 124 125 119 116 113 117 123 123 125 124 123 122
122 124 122 116 111 106 101 97 94 94 94 98 100 100 101 106 106 106 108 108 109 110 110 111 111 113 114 116 117 118 119 123 120 116 118 119 124 129 129 129 128 127 126
131 132 128 123 119 113 108 104 99 98 100 101 101 100 101 105 107 108 108 110 110 111 111 111 112 113 115 116 117 118 119 125 122 123 125 127 132 134 134 134 133 133 133
138 139 134 129 127 123 117 112 107 104 105 104 101 101 104 108 109 110 110 112 112 110 110 111 113 114 113 112 112 111 119 127 127 131 133 136 140 140 140 139 140 140 141
140 137 136 139 136 131 126 121 116 113 111 110 107 103 107 112 114 115 115 115 115 114 113 114 116 115 113 112 112 111 117 123 128 134 141 143 146 146 147 147 147 148 148
141 144 147 146 144 143 140 132 126 121 120 117 113 110 113 118 121 121 121 122 123 122 122 122 121 120 121 123 118 113 119 125 133 139 142 150 152 152 152 153 154 155 155
145 153 159 160 159 158 157 148 141 132 130 127 124 121 118 123 129 132 132 133 134 134 134 136 137 137 135 136 132 128 128 133 139 147 153 159 160 160 159 159 159 159 161
158 166 165 160 164 168 163 149 150 142 146 144 143 139 139 144 152 146 146 150 151 150 151 158 164 164 166 180 162 147 145 147 148 156 165 165 165 166 166 167 167 168 168
163 163 166 166 167 167 153 151 162 164 162 166 169 165 165 163 166 159 165 166 165 164 172 181 208 221 227 234 233 170 164 157 160 167 172 172 171 172 173 174 175 176 177
151 156 159 160 153 157 148 159 170 175 174 179 179 174 168 161 163 169 181 183 187 195 194 213 241 245 252 247 230 193 172 162 162 166 175 177 177 177 178 180 181 182 183
146 147 151 146 141 140 138 162 165 181 182 182 172 168 163 157 158 170 181 185 193 195 192 195 225 243 244 241 224 182 162 158 161 167 179 184 183 182 184 186 188 189 191
148 148 148 141 138 133 133 146 159 173 183 176 171 169 163 159 158 156 157 177 194 190 189 195 203 206 209 191 184 159 157 155 163 172 177 185 189 190 192 193 195 198 200
154 153 152 151 143 136 138 141 146 166 171 173 178 168 159 159 160 156 153 179 202 192 184 182 191 173 162 135 133 113 134 152 163 175 177 182 189 195 199 201 202 205 206
153 155 159 155 150 149 146 133 134 154 159 175 179 171 165 160 158 152 151 181 187 169 163 157 147 124 118 113 114 120 124 136 156 168 174 185 184 191 201 204 204 207 207
159 158 159 150 156 159 155 144 139 138 154 170 169 172 174 169 164 158 161 188 171 139 141 172 138 151 148 145 154 142 127 140 157 154 157 169 174 182 191 200 205 207 210
160 160 158 156 161 156 145 124 101 100 137 156 168 178 171 176 170 159 161 170 156 131 144 146 150 147 158 158 126 94 88 133 136 149 164 162 174 181 185 184 192 202 209
161 161 160 159 167 152 142 145 147 173 186 178 190 187 173 170 164 155 161 155 148 158 190 181 162 144 146 127 98 68 35 45 96 126 156 149 161 174 180 184 181 188 210
170 169 165 166 171 169 170 170 170 168 185 195 196 184 186 176 171 167 159 169 160 162 167 164 147 154 192 158 139 125 83 13 29 50 99 125 134 124 141 168 161 170 186
175 177 176 173 171 174 170 151 128 85 55 60 163 197 202 177 181 175 169 166 171 165 183 198 168 165 187 221 170 153 159 194 233 14 44 77 95 106 113 114 139 155 161
183 179 175 173 172 172 164 160 160 167 184 207 200 198 206 181 175 169 160 157 164 163 176 199 170 172 162 194 240 209 175 159 162 157 21 38 69 85 105 115 103 109 124
180 176 175 171 172 172 169 170 168 178 191 188 167 163 182 192 178 160 152 151 159 158 165 163 143 153 161 179 196 194 148 131 141 158 192 174 56 50 88 111 101 94 104
177 175 173 172 177 176 175 177 178 183 181 170 176 174 174 174 181 158 135 151 166 158 159 166 163 155 164 171 195 187 177 175 175 163 178 176 146 56 63 84 97 90 90
Height
1527 1525 1523 1522 1521 1519 1518 1516 1514 1513 1512 1511 1510 1510 1509 1509 1510 1510 1511 1512 1513 1515 1516 1518 1520 1521 1524 1526 1528 1530 1532 1534 1536 1538 1540 1541 1543 1544 1546 1547 1548 1549 1550
1527 1526 1525 1523 1522 1521 1519 1518 1516 1515 1514 1513 1513 1512 1512 1513 1513 1514 1515 1516 1517 1518 1520 1522 1523 1525 1527 1529 1531 1533 1535 1537 1539 1540 1542 1544 1545 1546 1548 1549 1550 1551 1552
1528 1527 1526 1525 1524 1523 1521 1520 1518 1517 1516 1515 1515 1515 1516 1516 1517 1517 1518 1519 1521 1522 1523 1525 1527 1528 1530 1532 1534 1536 1538 1540 1541 1543 1545 1546 1547 1548 1549 1551 1552 1552 1554
1529 1528 1527 1527 1526 1525 1523 1522 1521 1520 1519 1518 1518 1518 1518 1519 1520 1520 1522 1523 1524 1525 1527 1528 1530 1531 1533 1535 1537 1539 1541 1542 1544 1545 1547 1548 1549 1551 1552 1553 1554 1554 1555
1530 1529 1529 1528 1528 1527 1526 1525 1524 1523 1522 1521 1521 1521 1521 1522 1523 1524 1525 1527 1528 1529 1530 1531 1533 1534 1536 1538 1540 1542 1543 1545 1546 1548 1549 1550 1551 1553 1554 1554 1555 1556 1557
1531 1531 1531 1530 1530 1529 1528 1527 1526 1525 1525 1524 1524 1524 1524 1525 1526 1527 1528 1530 1531 1532 1533 1535 1536 1537 1539 1541 1543 1544 1546 1547 1548 1550 1551 1552 1553 1554 1555 1556 1557 1558 1559
1532 1532 1532 1532 1532 1531 1531 1530 1529 1528 1528 1527 1527 1527 1527 1528 1529 1530 1532 1533 1534 1535 1536 1538 1539 1541 1542 1544 1546 1547 1548 1550 1551 1552 1553 1554 1555 1556 1557 1557 1558 1559 1560
1534 1534 1534 1534 1534 1533 1533 1532 1532 1531 1531 1530 1530 1530 1530 1531 1532 1534 1535 1536 1537 1538 1539 1540 1542 1544 1545 1547 1548 1549 1550 1551 1553 1554 1555 1555 1556 1557 1558 1558 1559 1560 1561
1536 1536 1536 1536 1536 1536 1535 1535 1535 1534 1534 1534 1533 1533 1533 1534 1536 1537 1538 1538 1539 1541 1542 1543 1545 1546 1548 1549 1550 1551 1552 1553 1554 1555 1556 1557 1557 1558 1559 1559 1560 1561 1562
1538 1538 1538 1538 1538 1538 1538 1537 1537 1537 1537 1537 1537 1537 1536 1538 1539 1540 1540 1541 1543 1544 1545 1546 1547 1549 1550 1551 1552 1553 1554 1555 1555 1556 1557 1557 1558 1559 1559 1560 1561 1561 1562
1540 1540 1540 1540 1540 1540 1540 1540 1540 1540 1540 1540 1540 1540 1540 1540 1541 1542 1543 1544 1545 1546 1547 1548 1550 1551 1552 1553 1554 1555 1555 1556 1556 1557 1557 1558 1559 1559 1560 1561 1561 1562 1563
1540 1541 1541 1541 1542 1542 1542 1542 1542 1542 1542 1542 1542 1543 1543 1543 1544 1545 1546 1546 1547 1548 1549 1550 1552 1553 1554 1555 1555 1556 1557 1557 1557 1558 1558 1559 1559 1560 1560 1561 1561 1562 1562
1541 1541 1542 1542 1543 1543 1543 1544 1544 1544 1544 1544 1544 1544 1545 1545 1546 1547 1547 1548 1549 1550 1551 1552 1553 1554 1555 1556 1556 1557 1557 1557 1558 1558 1558 1559 1559 1560 1560 1561 1561 1562 1562
1541 1542 1542 1543 1543 1544 1544 1545 1545 1545 1546 1546 1546 1546 1546 1547 1547 1548 1549 1549 1550 1552 1552 1553 1554 1555 1556 1556 1557 1557 1557 1557 1558 1558 1559 1559 1559 1560 1560 1561 1561 1562 1562
1541 1542 1543 1543 1544 1544 1545 1545 1546 1546 1547 1547 1547 1547 1548 1548 1549 1549 1550 1551 1552 1553 1554 1554 1555 1556 1556 1556 1556 1557 1557 1557 1558 1558 1558 1559 1559 1560 1560 1560 1561 1561 1561
1541 1542 1543 1544 1544 1545 1545 1546 1546 1547 1547 1548 1548 1549 1549 1550 1550 1550 1551 1552 1552 1553 1553 1554 1555 1555 1556 1556 1556 1556 1557 1557 1558 1558 1558 1558 1559 1559 1559 1560 1560 1560 1560
1541 1542 1543 1544 1545 1545 1546 1546 1547 1547 1548 1549 1549 1549 1550 1550 1551 1551 1551 1552 1552 1553 1553 1554 1554 1555 1555 1555 1555 1556 1556 1557 1557 1557 1557 1557 1558 1558 1558 1558 1559 1559 1559
1540 1542 1543 1544 1544 1545 1546 1546 1547 1547 1548 1549 1549 1550 1550 1551 1551 1551 1551 1552 1552 1552 1553 1553 1553 1553 1554 1554 1554 1555 1555 1555 1555 1556 1556 1556 1556 1556 1557 1557 1557 1557 1558
1540 1541 1542 1543 1544 1545 1545 1546 1547 1547 1548 1548 1549 1549 1550 1550 1550 1550 1551 1551 1551 1552 1552 1552 1552 1552 1552 1553 1553 1553 1553 1553 1553 1554 1553 1553 1554 1554 1554 1555 1555 1555 1555
1539 1540 1541 1542 1543 1544 1545 1546 1546 1547 1548 1548 1549 1549 1549 1549 1550 1550 1550 1550 1550 1551 1551 1551 1551 1551 1551 1551 1552 1552 1552 1552 1552 1551 1551 1552 1552 1552 1552 1553 1553 1553 1553
1538 1539 1540 1541 1543 1543 1544 1545 1545 1546 1547 1547 1548 1548 1549 1549 1549 1549 1549 1549 1549 1549 1549 1549 1549 1549 1549 1550 1550 1550 1550 1550 1550 1549 1550 1549 1550 1550 1550 1550 1551 1551 1551
1536 1537 1539 1540 1541 1542 1543 1544 1545 1546 1546 1547 1547 1547 1548 1548 1548 1548 1547 1548 1548 1548 1548 1547 1547 1547 1547 1548 1548 1548 1548 1549 1548 1548 1548 1548 1548 1548 1548 1548 1548 1549 1549
1534 1536 1537 1538 1540 1541 1542 1543 1544 1545 1545 1546 1546 1546 1546 1547 1547 1547 1546 1546 1546 1546 1545 1545 1545 1545 1545 1545 1546 1546 1546 1546 1547 1547 1546 1546 1546 1546 1546 1546 1546 1546 1546
1532 1534 1536 1537 1538 1540 1541 1542 1542 1543 1544 1544 1545 1545 1546 1546 1546 1546 1545 1545 1544 1544 1544 1543 1543 1543 1543 1542 1543 1544 1544 1544 1544 1544 1545 1545 1545 1544 1545 1544 1544 1544 1544
1530 1532 1534 1536 1537 1538 1539 1540 1541 1542 1543 1544 1544 1544 1545 1545 1545 1545 1544 1543 1543 1542 1542 1541 1541 1541 1540 1540 1540 1540 1541 1541 1542 1542 1542 1543 1543 1543 1543 1543 1543 1542 1542
1528 1531 1532 1534 1535 1537 1538 1539 1540 1541 1542 1542 1543 1543 1544 1544 1544 1543 1543 1542 1541 1541 1540 1540 1539 1539 1538 1538 1538 1538 1538 1538 1539 1539 1539 1540 1540 1541 1541 1541 1541 1541 1541